Kodiak, AK

12:55 PM AKDT en Julio 15, 2018 (GMT -0800)
Kodiak

Tiempo Historia de PADQ - Mayo, 2018

Change the Weather History Date:

Miércoles, Mayo 16, 2018

  Actual Average Record
Temperature  
Temperatura media 45 ° F 44 ° F  
Temperatura máxima 46 ° F 50 ° F 68 ° F (1942)
Temperatura mínima 43 ° F 39 ° F 28 ° F (1966)
Degree Days  
Grados día de calefacción 20 21  
Month to date heating degree days 351 354  
Since 1 July heating degree days 7254 8046  
Cooling Degree Days 0 0  
Month to date cooling degree days 0 0  
Year to date cooling degree days 0 0  
Moisture  
Punto de rocío 43 ° F    
Average Humidity 91    
Maximum Humidity 100    
Minimum Humidity 82    
Precipitación  
Precipitación 0.24 pul 0.18 pul 1.73 pul (1984)
Month to date precipitation 3.97 2.75  
Year to date precipitation 22.67 28.52  
Nieve  
Nieve 0.00 pul 0.00 pul - ()
Month to date snowfall 0.0 0.2  
Since 1 July snowfall 17.9 68.9  
Grosos de nieve 0.00 pul    
Presión al nivel del mar  
Presión al nivel del mar 30.08 pul    
Viento  
Velocidad del viento 11 mph (ENE)    
Velocidad máxima del viento 28 mph    
Max Gust Speed 33 mph    
Visibilidad 4 Millas    
Eventos Lluvia    
T = Trace of Precipitation, MM = Missing Value Source: NWS Daily Summary

Daily Weather History Graph

Daily Weather History Graph

Search for Another Location

Airport or City:

Astronomía

May. 16, 2018 Salida Puesta
Hora real 5:44 AM AKDT 10:29 PM AKDT
Crepúsculo civil 4:49 AM AKDT 11:25 PM AKDT
Crepúsculo náutico 3:09 AM AKDT 1:09 AM AKDT
Crepúsculo astronómico Sun does not set Sun does not set
Luna 7:12 AM AKDT (5/16) Sin puesta de luna
Horas de luz 18h 36m
Horas de luz
16h 44m
Luna nueva, 3% of the Moon is Illuminated
May 16
Luna nueva
May 21
Cuarto creciente
May 29
Luna llena
Jun 6
Cuarto menguante
Jun 13
Nueva

Hourly Weather History & Observations

Hora (AKDT) Temp. Vientos helados Punto de rocío Humedad Presión Visibilidad Wind Dir Velocidad del viento Velocidad de ráfagas Precip Eventos Condiciones
12:25 AM 42.1 ° F 36.1 ° F 39.0 ° F 89% 30.05 pul 10.0 mi ENE 10.4 mph - 0.01 pul Lluvia Lluvia débil
12:43 AM 42.1 ° F 36.6 ° F 39.0 ° F 89% 30.05 pul 10.0 mi Este 9.2 mph - 0.01 pul Lluvia Lluvia débil
12:53 AM 42.1 ° F 37.7 ° F 37.9 ° F 85% 30.06 pul 9.0 mi ENE 6.9 mph - 0.02 pul Lluvia Lluvia débil
1:16 AM 41.0 ° F 35.8 ° F 39.0 ° F 93% 30.05 pul 6.0 mi ENE 8.1 mph - 0.00 pul Lluvia Lluvia débil
1:44 AM 41.0 ° F 36.4 ° F 39.0 ° F 93% 30.05 pul 6.0 mi NE 6.9 mph - 0.01 pul Lluvia Lluvia débil
1:53 AM 41.0 ° F 35.8 ° F 39.0 ° F 93% 30.05 pul 6.0 mi NE 8.1 mph - 0.01 pul Lluvia Lluvia débil
2:02 AM 41.0 ° F 35.2 ° F 39.0 ° F 93% 30.05 pul 4.0 mi NNE 9.2 mph - 0.00 pul Lluvia Lluvia débil
2:53 AM 42.1 ° F 34.5 ° F 39.9 ° F 92% 30.04 pul 8.0 mi NE 15.0 mph - 0.02 pul Lluvia Lluvia débil
3:53 AM 43.0 ° F 36.8 ° F 42.1 ° F 97% 30.02 pul 4.0 mi NE 11.5 mph - 0.02 pul Lluvia Lluvia débil
4:09 AM 43.0 ° F 37.2 ° F 43.0 ° F 100% 30.02 pul 7.0 mi NE 10.4 mph - 0.00 pul Lluvia Lluvia débil
4:53 AM 44.1 ° F 38.1 ° F 44.1 ° F 100% 30.02 pul 6.0 mi Este 11.5 mph - 0.04 pul Lluvia Lluvia débil
5:08 AM 44.1 ° F 38.6 ° F 44.1 ° F 100% 30.02 pul 5.0 mi Este 10.4 mph - 0.00 pul Lluvia Lluvia débil
5:53 AM 44.1 ° F 39.0 ° F 44.1 ° F 100% 30.02 pul 6.0 mi Este 9.2 mph - 0.04 pul Lluvia Lluvia débil
6:17 AM 44.1 ° F 38.6 ° F 44.1 ° F 100% 30.02 pul 7.0 mi Este 10.4 mph - 0.01 pul Lluvia Lluvia débil
6:40 AM 44.1 ° F 38.6 ° F 44.1 ° F 100% 30.02 pul 5.0 mi Este 10.4 mph - 0.02 pul Lluvia Lluvia débil
6:53 AM 44.1 ° F 38.6 ° F 44.1 ° F 100% 30.02 pul 6.0 mi Este 10.4 mph - 0.02 pul Lluvia Lluvia débil
7:53 AM 44.1 ° F 38.6 ° F 44.1 ° F 100% 30.04 pul 8.0 mi Este 10.4 mph - 0.02 pul Lluvia Lluvia débil
8:16 AM 44.1 ° F 38.1 ° F 44.1 ° F 100% 30.04 pul 9.0 mi Este 11.5 mph - 0.01 pul Lluvia Lluvia débil
8:24 AM 44.1 ° F 37.7 ° F 44.1 ° F 100% 30.04 pul 9.0 mi Este 12.7 mph - 0.01 pul Lluvia Lluvia débil
8:53 AM 44.1 ° F 38.1 ° F 44.1 ° F 100% 30.05 pul 7.0 mi Este 11.5 mph - 0.02 pul Lluvia Lluvia débil
9:17 AM 44.1 ° F 38.1 ° F 44.1 ° F 100% 30.05 pul 10.0 mi Este 11.5 mph - 0.01 pul Lluvia Lluvia débil
9:53 AM 45.0 ° F 38.9 ° F 44.1 ° F 97% 30.06 pul 10.0 mi Este 12.7 mph - 0.01 pul   Nublado
9:57 AM 45.0 ° F 39.3 ° F 44.1 ° F 97% 30.06 pul 10.0 mi Este 11.5 mph - N/A   Nublado
10:32 AM 45.0 ° F 38.9 ° F 43.0 ° F 93% 30.07 pul 6.0 mi Este 12.7 mph - 0.00 pul Lluvia Lluvia débil
10:40 AM 45.0 ° F 38.9 ° F 43.0 ° F 93% 30.08 pul 3.0 mi Este 12.7 mph - 0.00 pul Lluvia Lluvia débil
10:53 AM 44.1 ° F 37.4 ° F 43.0 ° F 96% 30.08 pul 3.0 mi Este 13.8 mph - 0.00 pul Lluvia Lluvia débil
11:53 AM 44.1 ° F 37.7 ° F 43.0 ° F 96% 30.09 pul 3.0 mi Este 12.7 mph - 0.00 pul   Nublado
11:56 AM 44.1 ° F 37.7 ° F 43.0 ° F 96% 30.09 pul 2.5 mi Este 12.7 mph - N/A   Nublado
12:16 PM 44.1 ° F 37.1 ° F 43.0 ° F 96% 30.09 pul 1.5 mi Este 15.0 mph - N/A   Nublado
12:36 PM 44.1 ° F 37.4 ° F 43.0 ° F 96% 30.10 pul 2.0 mi Este 13.8 mph - N/A   Nublado
12:45 PM 44.1 ° F 37.4 ° F 43.0 ° F 96% 30.10 pul 2.0 mi Este 13.8 mph - N/A   Nublado
12:53 PM 44.1 ° F 36.8 ° F 42.1 ° F 93% 30.11 pul 1.5 mi Este 16.1 mph - 0.00 pul Lluvia Lluvia débil
1:14 PM 44.1 ° F 38.1 ° F 42.1 ° F 93% 30.11 pul 1.0 mi Este 11.5 mph - 0.01 pul Lluvia Lluvia débil
1:21 PM 44.1 ° F 37.4 ° F 42.1 ° F 93% 30.11 pul 1.8 mi Este 13.8 mph - 0.01 pul   Nublado
1:28 PM 44.1 ° F 37.1 ° F 42.1 ° F 93% 30.11 pul 2.5 mi Este 15.0 mph - 0.01 pul   Nublado
1:53 PM 44.1 ° F 37.7 ° F 42.1 ° F 93% 30.11 pul 4.0 mi Este 12.7 mph - 0.01 pul   Nublado
2:07 PM 44.1 ° F 37.7 ° F 42.1 ° F 93% 30.11 pul 2.0 mi Este 12.7 mph - N/A   Nublado
2:25 PM 44.1 ° F 37.7 ° F 43.0 ° F 96% 30.11 pul 8.0 mi ENE 12.7 mph - N/A   Nublado
2:53 PM 44.1 ° F 37.1 ° F 43.0 ° F 96% 30.12 pul 3.0 mi Este 15.0 mph - N/A   Nublado
3:06 PM 44.1 ° F 37.7 ° F 43.0 ° F 96% 30.12 pul 1.8 mi ENE 12.7 mph - 0.00 pul Lluvia Lluvia débil
3:53 PM 44.1 ° F 37.4 ° F 43.0 ° F 96% 30.13 pul 1.2 mi ENE 13.8 mph - 0.02 pul Lluvia Lluvia débil
4:22 PM 44.1 ° F 37.4 ° F 43.0 ° F 96% 30.12 pul 1.0 mi ENE 13.8 mph - 0.01 pul Lluvia Lluvia débil
4:53 PM 44.1 ° F 37.7 ° F 44.1 ° F 100% 30.12 pul 1.0 mi ENE 12.7 mph - 0.03 pul Lluvia Lluvia débil
5:53 PM 44.1 ° F 37.7 ° F 44.1 ° F 100% 30.12 pul 1.0 mi ENE 12.7 mph - 0.03 pul Lluvia Lluvia débil
6:37 PM 44.1 ° F 38.1 ° F 44.1 ° F 100% 30.12 pul 1.0 mi ENE 11.5 mph - 0.02 pul Lluvia Lluvia débil
6:53 PM 44.1 ° F 38.1 ° F 43.0 ° F 96% 30.12 pul 1.0 mi ENE 11.5 mph - 0.03 pul Lluvia Lluvia débil
7:00 PM 44.1 ° F 37.4 ° F 43.0 ° F 96% 30.12 pul 1.2 mi ENE 13.8 mph - 0.00 pul Lluvia Lluvia débil
7:15 PM 44.1 ° F 37.7 ° F 43.0 ° F 96% 30.12 pul 1.0 mi ENE 12.7 mph - 0.01 pul Lluvia Lluvia débil
7:31 PM 44.1 ° F 37.7 ° F 42.1 ° F 93% 30.12 pul 1.2 mi NE 12.7 mph - 0.02 pul   Nublado
7:53 PM 44.1 ° F 37.7 ° F 42.1 ° F 93% 30.12 pul 1.5 mi NE 12.7 mph - 0.02 pul Lluvia Lluvia débil
8:53 PM 44.1 ° F 37.7 ° F 42.1 ° F 93% 30.13 pul 1.5 mi NE 12.7 mph - 0.02 pul Lluvia Lluvia débil
9:53 PM 43.0 ° F 36.4 ° F 42.1 ° F 97% 30.12 pul 1.8 mi NE 12.7 mph - 0.03 pul Lluvia Lluvia débil
10:20 PM 43.0 ° F 36.0 ° F 42.1 ° F 97% 30.12 pul 2.0 mi NE 13.8 mph - 0.01 pul Lluvia Lluvia débil
10:53 PM 44.1 ° F 37.7 ° F 42.1 ° F 93% 30.13 pul 2.5 mi NE 12.7 mph - 0.02 pul Lluvia Lluvia débil
11:12 PM 44.1 ° F 38.1 ° F 42.1 ° F 93% 30.12 pul 3.0 mi NE 11.5 mph - 0.01 pul Lluvia Lluvia débil
11:48 PM 44.6 ° F 38.4 ° F 42.8 ° F 93% 30.12 pul 2.5 mi NE 12.7 mph - 0.01 pul Lluvia Lluvia débil
11:53 PM 44.1 ° F 38.1 ° F 42.1 ° F 93% 30.12 pul 2.5 mi NE 11.5 mph - 0.01 pul Lluvia Lluvia débil